M I D A S
Marine Information and Data Acquisition System
Tripno 1992 of the Zeeleeuw from 2010-12-13 08:06:46 to 2010-12-13 18:18:51
Back to CruiseResearch ActivitiesStationsMapUnderway DataData graphs

EquipmentUnitsComments
TimeDGPSUTC
LatitudeDGPSDM.mWGS84
LongitudeDGPSDM.mWGS84
SpeedMeteo Stationm/sRelative wind speed
DirectionMeteo StationdegRelative wind direction
TemperatureMeteo Stationdeg CelciusAir temperature
PressureMeteo StationPaAtmospheric pressure
HumidityMeteo Station%Relative humidity
Missing or incorrect values are displayed as -999
Metereological data collected by the RV Zeeleeuw from 2010-12-13 07:54:21 to 2010-12-13 18:30:19
                                                                                    Next 1000 lines
Time Latitude Longitude Speed Direction Temperature Pressure Humidity
2010-12-13 07:54:31 51°13.66 2°55.96 -999 328 -1.6 102700 34
2010-12-13 07:54:35 51°13.66 2°55.96 -999 330 -1.6 102700 34
2010-12-13 07:54:41 51°13.66 2°55.959 -999 327 -1.6 102700 34
2010-12-13 07:54:46 51°13.66 2°55.959 -999 318 -1.6 102700 34
2010-12-13 07:54:51 51°13.66 2°55.957 -999 317 -1.6 102700 34
2010-12-13 07:54:56 51°13.661 2°55.955 -999 322 -1.6 102700 34
2010-12-13 07:55:01 51°13.662 2°55.951 -999 320 -1.6 102700 34
2010-12-13 07:55:06 51°13.663 2°55.947 -999 322 -1.6 102700 34
2010-12-13 07:55:11 51°13.664 2°55.941 -999 318 -1.6 102700 34
2010-12-13 07:55:17 51°13.666 2°55.935 -999 257 -1.6 102700 34
2010-12-13 07:55:23 51°13.668 2°55.927 -999 21 -1.6 102700 34
2010-12-13 07:55:29 51°13.669 2°55.918 -999 33 -1.6 102700 34
2010-12-13 07:55:35 51°13.671 2°55.909 -999 22 -1.6 102700 32
2010-12-13 07:55:40 51°13.673 2°55.901 -999 33 -1.6 102700 32
2010-12-13 07:55:45 51°13.675 2°55.892 -999 22 -1.6 102700 34
2010-12-13 07:55:50 51°13.677 2°55.884 -999 33 -1.6 102700 34
2010-12-13 07:55:55 51°13.679 2°55.875 -999 22 -1.6 102700 34
2010-12-13 07:56:00 51°13.68 2°55.866 -999 33 -1.6 102700 34
2010-12-13 07:56:05 51°13.682 2°55.857 -999 22 -1.6 102700 33
2010-12-13 07:56:10 51°13.684 2°55.849 -999 33 -1.6 102700 33
2010-12-13 07:56:15 51°13.685 2°55.84 -999 22 -1.6 102710 34
2010-12-13 07:56:20 51°13.687 2°55.832 -999 33 -1.6 102710 34
2010-12-13 07:56:25 51°13.688 2°55.824 -999 22 -1.6 102700 34
2010-12-13 07:56:30 51°13.689 2°55.816 -999 33 -1.6 102700 34
2010-12-13 07:56:35 51°13.691 2°55.808 -999 22 -1.6 102710 34
2010-12-13 07:56:40 51°13.692 2°55.8 -999 33 -1.6 102710 34
2010-12-13 07:56:45 51°13.693 2°55.792 -999 22 -1.6 102700 34
2010-12-13 07:56:50 51°13.694 2°55.784 -999 33 -1.6 102700 34
2010-12-13 07:56:55 51°13.694 2°55.776 -999 22 -1.5 102710 34
2010-12-13 07:57:00 51°13.695 2°55.769 -999 33 -1.5 102710 34
2010-12-13 07:57:05 51°13.695 2°55.762 -999 22 -1.5 102710 34
2010-12-13 07:57:10 51°13.696 2°55.755 -999 38 -1.5 102710 34
2010-12-13 07:57:15 51°13.696 2°55.749 -999 38 -1.5 102710 34
2010-12-13 07:57:19 51°13.696 2°55.746 -999 12 -1.5 102710 34
2010-12-13 07:57:24 51°13.696 2°55.743 -999 1 -1.5 102710 34
2010-12-13 07:57:30 51°13.696 2°55.74 -999 349 -1.5 102710 34
2010-12-13 07:57:35 51°13.697 2°55.74 -999 344 -1.5 102710 34
2010-12-13 07:57:39 51°13.697 2°55.739 -999 350 -1.5 102710 34
2010-12-13 07:57:44 51°13.698 2°55.739 -999 349 -1.5 102710 34
2010-12-13 07:57:49 51°13.698 2°55.739 -999 351 -1.5 102710 34
2010-12-13 07:57:54 51°13.699 2°55.739 -999 350 -1.5 102710 34
2010-12-13 07:57:59 51°13.7 2°55.74 -999 355 -1.5 102710 34
2010-12-13 07:58:03 51°13.701 2°55.741 -999 351 -1.5 102700 34
2010-12-13 07:58:08 51°13.702 2°55.742 -999 353 -1.5 102700 34
2010-12-13 07:58:14 51°13.704 2°55.743 -999 356 -1.5 102710 33
2010-12-13 07:58:19 51°13.705 2°55.744 -999 2 -1.5 102710 33
2010-12-13 07:58:23 51°13.706 2°55.745 -999 2 -1.5 102700 34
2010-12-13 07:58:28 51°13.707 2°55.745 -999 16 -1.5 102700 34
2010-12-13 07:58:33 51°13.707 2°55.745 -999 18 -1.5 102700 34
2010-12-13 07:58:38 51°13.706 2°55.745 -999 18 -1.5 102700 34
2010-12-13 07:58:43 51°13.706 2°55.744 -999 20 -1.5 102710 33
2010-12-13 07:58:48 51°13.705 2°55.743 -999 28 -1.5 102710 33
2010-12-13 07:58:53 51°13.704 2°55.741 -999 25 -1.5 102700 34
2010-12-13 07:58:58 51°13.702 2°55.74 -999 28 -1.5 102700 34
2010-12-13 07:59:03 51°13.7 2°55.738 -999 32 -1.5 102700 34
2010-12-13 07:59:08 51°13.698 2°55.737 -999 34 -1.5 102700 34
2010-12-13 07:59:14 51°13.696 2°55.735 -999 36 -1.5 102710 34
2010-12-13 07:59:19 51°13.695 2°55.734 -999 23 -1.5 102710 34
2010-12-13 07:59:25 51°13.695 2°55.733 -999 24 -1.5 102700 34
2010-12-13 07:59:30 51°13.697 2°55.733 -999 16 -1.5 102700 34
2010-12-13 07:59:35 51°13.699 2°55.732 -999 16 -1.5 102710 34
2010-12-13 07:59:39 51°13.702 2°55.731 -999 13 -1.5 102710 34
2010-12-13 07:59:44 51°13.707 2°55.73 -999 13 -1.4 102710 34
2010-12-13 07:59:50 51°13.713 2°55.727 -999 355 -1.4 102710 34
2010-12-13 07:59:55 51°13.719 2°55.724 -999 350 -1.4 102700 34
2010-12-13 07:59:59 51°13.724 2°55.721 -999 349 -1.4 102700 34
2010-12-13 08:00:04 51°13.731 2°55.717 -999 348 -1.5 102710 34
2010-12-13 08:00:09 51°13.739 2°55.713 -999 346 -1.5 102710 34
2010-12-13 08:00:14 51°13.748 2°55.708 -999 342 -1.4 102710 34
2010-12-13 08:00:19 51°13.757 2°55.703 -999 342 -1.4 102710 34
2010-12-13 08:00:24 51°13.767 2°55.696 -999 342 -1.4 102700 34
2010-12-13 08:00:29 51°13.777 2°55.689 -999 341 -1.4 102700 34
2010-12-13 08:00:34 51°13.787 2°55.681 -999 339 -1.4 102700 34
2010-12-13 08:00:39 51°13.797 2°55.673 1.9 334 -1.4 102700 34
2010-12-13 08:00:43 51°13.806 2°55.666 2.8 335 -1.4 102700 34
2010-12-13 08:00:48 51°13.816 2°55.657 2.3 335 -1.4 102700 34
2010-12-13 08:00:53 51°13.827 2°55.648 2.8 339 -1.4 102710 33
2010-12-13 08:00:59 51°13.84 2°55.636 3.8 332 -1.4 102710 33
2010-12-13 08:01:03 51°13.85 2°55.628 2.7 334 -1.4 102700 32
2010-12-13 08:01:08 51°13.861 2°55.619 2.7 337 -1.4 102700 32
2010-12-13 08:01:13 51°13.873 2°55.608 3 335 -1.4 102710 36
2010-12-13 08:01:18 51°13.885 2°55.598 3.1 339 -1.4 102710 36
2010-12-13 08:01:23 51°13.897 2°55.587 3.1 340 -1.4 102710 31
2010-12-13 08:01:28 51°13.91 2°55.578 3.6 341 -1.4 102710 31
2010-12-13 08:01:33 51°13.922 2°55.568 3.1 339 -1.5 102710 32
2010-12-13 08:01:38 51°13.935 2°55.558 4.2 335 -1.5 102710 32
2010-12-13 08:01:43 51°13.948 2°55.548 4.2 336 -1.4 102710 32
2010-12-13 08:01:47 51°13.958 2°55.541 2.5 338 -1.4 102710 32
2010-12-13 08:01:52 51°13.971 2°55.531 0.3 337 -1.4 102710 35
2010-12-13 08:01:57 51°13.984 2°55.522 0.1 340 -1.4 102710 35
2010-12-13 08:02:02 51°13.997 2°55.512 0.1 339 -1.4 102710 32
2010-12-13 08:02:07 51°14.01 2°55.503 -999 337 -1.4 102710 32
2010-12-13 08:02:13 51°14.025 2°55.491 -999 338 -1.4 102710 34
2010-12-13 08:02:18 51°14.038 2°55.482 -999 340 -1.4 102710 34
2010-12-13 08:02:23 51°14.051 2°55.472 -999 342 -1.4 102710 34
2010-12-13 08:02:29 51°14.067 2°55.461 -999 339 -1.4 102710 34
2010-12-13 08:02:35 51°14.083 2°55.449 -999 338 -1.5 102710 34
2010-12-13 08:02:39 51°14.093 2°55.441 -999 337 -1.5 102710 34
2010-12-13 08:02:44 51°14.106 2°55.431 -999 338 -1.5 102700 34
2010-12-13 08:02:50 51°14.121 2°55.419 -999 337 -1.5 102700 34
2010-12-13 08:02:55 51°14.134 2°55.41 -999 336 -1.4 102710 34
2010-12-13 08:03:00 51°14.147 2°55.4 -999 337 -1.4 102710 34
2010-12-13 08:03:05 51°14.16 2°55.391 -999 338 -1.5 102710 34
2010-12-13 08:03:10 51°14.173 2°55.381 -999 337 -1.5 102710 34
2010-12-13 08:03:15 51°14.186 2°55.371 -999 340 -1.4 102710 34
2010-12-13 08:03:19 51°14.196 2°55.364 -999 339 -1.4 102710 34
2010-12-13 08:03:25 51°14.212 2°55.352 -999 338 -1.4 102710 34
2010-12-13 08:03:30 51°14.225 2°55.343 -999 336 -1.4 102710 34
2010-12-13 08:03:35 51°14.238 2°55.333 -999 336 -1.4 102710 32
2010-12-13 08:03:39 51°14.248 2°55.325 -999 339 -1.4 102710 32
2010-12-13 08:03:45 51°14.263 2°55.312 -999 339 -1.4 102710 34
2010-12-13 08:03:50 51°14.276 2°55.301 -999 340 -1.4 102710 34
2010-12-13 08:03:55 51°14.289 2°55.29 -999 338 -1.4 102710 34
2010-12-13 08:03:59 51°14.299 2°55.281 -999 341 -1.4 102710 34
2010-12-13 08:04:04 51°14.311 2°55.269 -999 340 -1.4 102710 32
2010-12-13 08:04:10 51°14.327 2°55.254 -999 341 -1.4 102710 32
2010-12-13 08:04:15 51°14.339 2°55.242 -999 339 -1.5 102710 34
2010-12-13 08:04:19 51°14.349 2°55.232 -999 341 -1.5 102710 34
2010-12-13 08:04:25 51°14.364 2°55.217 -999 339 -1.5 102710 34
2010-12-13 08:04:29 51°14.375 2°55.207 -999 339 -1.5 102710 34
2010-12-13 08:04:35 51°14.39 2°55.192 -999 338 -1.5 102710 34
2010-12-13 08:04:39 51°14.4 2°55.182 -999 340 -1.5 102710 34
2010-12-13 08:04:44 51°14.413 2°55.169 -999 340 -1.5 102700 34
2010-12-13 08:04:49 51°14.425 2°55.157 -999 341 -1.5 102700 34
2010-12-13 08:04:55 51°14.44 2°55.141 -999 341 -1.5 102700 34
2010-12-13 08:04:59 51°14.45 2°55.131 -999 342 -1.5 102700 34
2010-12-13 08:05:04 51°14.462 2°55.117 -999 344 -1.5 102700 34
2010-12-13 08:05:09 51°14.474 2°55.103 -999 339 -1.5 102700 34
2010-12-13 08:05:14 51°14.486 2°55.09 -999 337 -1.5 102700 34
2010-12-13 08:05:19 51°14.498 2°55.076 -999 344 -1.5 102700 34
2010-12-13 08:05:24 51°14.51 2°55.062 -999 341 -1.5 102710 34
2010-12-13 08:05:29 51°14.522 2°55.048 -999 344 -1.5 102710 34
2010-12-13 08:05:34 51°14.534 2°55.033 -999 339 -1.5 102710 34
2010-12-13 08:05:39 51°14.546 2°55.018 -999 341 -1.5 102710 34
2010-12-13 08:05:43 51°14.555 2°55.006 -999 341 -1.5 102710 34
2010-12-13 08:05:48 51°14.566 2°54.99 -999 340 -1.5 102710 34
2010-12-13 08:05:53 51°14.577 2°54.974 -999 341 -1.5 102700 34
2010-12-13 08:05:58 51°14.588 2°54.958 -999 337 -1.5 102700 34
2010-12-13 08:06:03 51°14.6 2°54.942 -999 338 -1.5 102700 34
2010-12-13 08:06:08 51°14.612 2°54.928 -999 339 -1.5 102700 34
2010-12-13 08:06:13 51°14.624 2°54.913 -999 338 -1.5 102710 34
2010-12-13 08:06:18 51°14.637 2°54.901 -999 342 -1.5 102710 34
2010-12-13 08:06:23 51°14.65 2°54.892 -999 340 -1.4 102700 34
2010-12-13 08:06:28 51°14.664 2°54.885 -999 341 -1.4 102700 34
2010-12-13 08:06:33 51°14.678 2°54.88 -999 343 -1.4 102700 34
2010-12-13 08:06:38 51°14.692 2°54.875 -999 345 -1.4 102700 34
2010-12-13 08:06:43 51°14.705 2°54.871 -999 347 -1.4 102700 32
2010-12-13 08:06:47 51°14.716 2°54.868 -999 350 -1.4 102700 32
2010-12-13 08:06:52 51°14.729 2°54.865 -999 350 -1.4 102710 34
2010-12-13 08:06:57 51°14.742 2°54.863 -999 346 -1.4 102710 34
2010-12-13 08:07:02 51°14.754 2°54.861 -999 345 -1.4 102710 34
2010-12-13 08:07:07 51°14.767 2°54.86 -999 348 -1.4 102710 34
2010-12-13 08:07:12 51°14.78 2°54.859 -999 347 -1.4 102700 34
2010-12-13 08:07:17 51°14.793 2°54.858 -999 348 -1.4 102700 34
2010-12-13 08:07:22 51°14.805 2°54.858 -999 346 -1.4 102700 34
2010-12-13 08:07:27 51°14.819 2°54.858 -999 346 -1.4 102700 34
2010-12-13 08:07:31 51°14.829 2°54.857 -999 347 -1.4 102700 34
2010-12-13 08:07:37 51°14.846 2°54.857 -999 345 -1.4 102700 34
2010-12-13 08:07:42 51°14.859 2°54.857 0.1 349 -1.4 102700 34
2010-12-13 08:07:47 51°14.873 2°54.857 0.1 353 -1.4 102700 34
2010-12-13 08:07:51 51°14.883 2°54.857 0.1 353 -1.4 102710 33
2010-12-13 08:07:56 51°14.896 2°54.857 0.3 353 -1.4 102710 33
2010-12-13 08:08:01 51°14.908 2°54.857 0.2 351 -1.4 102700 33
2010-12-13 08:08:06 51°14.92 2°54.857 0.1 348 -1.4 102700 33
2010-12-13 08:08:11 51°14.932 2°54.856 -999 348 -1.4 102700 33
2010-12-13 08:08:16 51°14.943 2°54.857 -999 350 -1.4 102700 33
2010-12-13 08:08:21 51°14.954 2°54.856 -999 348 -1.3 102710 33
2010-12-13 08:08:26 51°14.965 2°54.856 -999 349 -1.3 102710 33
2010-12-13 08:08:31 51°14.976 2°54.856 -999 351 -1.3 102700 33
2010-12-13 08:08:35 51°14.985 2°54.854 -999 350 -1.3 102700 33
2010-12-13 08:08:41 51°14.997 2°54.851 -999 353 -1.3 102700 33
2010-12-13 08:08:46 51°15.006 2°54.847 -999 2 -1.3 102700 33
2010-12-13 08:08:51 51°15.015 2°54.843 -999 3 -1.3 102700 33
2010-12-13 08:08:56 51°15.023 2°54.837 -999 1 -1.3 102700 33
2010-12-13 08:09:01 51°15.031 2°54.831 -999 359 -1.3 102700 33
2010-12-13 08:09:06 51°15.039 2°54.825 -999 11 -1.3 102700 33
2010-12-13 08:09:11 51°15.046 2°54.818 -999 7 -1.3 102710 33
2010-12-13 08:09:15 51°15.052 2°54.812 -999 7 -1.3 102710 33
2010-12-13 08:09:21 51°15.06 2°54.803 -999 5 -1.2 102710 32
2010-12-13 08:09:26 51°15.067 2°54.796 -999 360 -1.2 102710 32
2010-12-13 08:09:31 51°15.073 2°54.788 -999 13 -1.2 102710 33
2010-12-13 08:09:36 51°15.079 2°54.78 -999 8 -1.2 102710 33
2010-12-13 08:09:41 51°15.085 2°54.772 -999 8 -1.2 102720 33
2010-12-13 08:09:46 51°15.091 2°54.764 -999 7 -1.2 102720 33
2010-12-13 08:09:51 51°15.097 2°54.756 -999 15 -1.2 102700 33
2010-12-13 08:09:56 51°15.103 2°54.748 -999 9 -1.2 102700 33
2010-12-13 08:10:01 51°15.108 2°54.74 -999 9 -1.2 102710 33
2010-12-13 08:10:06 51°15.114 2°54.731 -999 9 -1.2 102710 33
2010-12-13 08:10:11 51°15.12 2°54.723 -999 12 -1.2 102710 33
2010-12-13 08:10:16 51°15.126 2°54.715 -999 5 -1.2 102710 33
2010-12-13 08:10:21 51°15.131 2°54.707 -999 12 -1.2 102710 33
2010-12-13 08:10:26 51°15.137 2°54.699 -999 2 -1.2 102710 33
2010-12-13 08:10:31 51°15.142 2°54.691 -999 9 -1.2 102720 33
2010-12-13 08:10:36 51°15.148 2°54.683 -999 14 -1.2 102720 33
2010-12-13 08:10:41 51°15.153 2°54.674 -999 23 -1.2 102710 33
2010-12-13 08:10:46 51°15.157 2°54.665 -999 21 -1.2 102710 33
2010-12-13 08:10:51 51°15.162 2°54.655 -999 20 -1.2 102710 33
2010-12-13 08:10:56 51°15.165 2°54.645 -999 41 -1.2 102710 33
2010-12-13 08:11:01 51°15.169 2°54.636 -999 36 -1.1 102710 33
2010-12-13 08:11:06 51°15.172 2°54.625 -999 45 -1.1 102710 33
2010-12-13 08:11:11 51°15.175 2°54.615 -999 44 -1.1 102720 33
2010-12-13 08:11:16 51°15.177 2°54.605 -999 33 -1.1 102720 33
2010-12-13 08:11:21 51°15.18 2°54.594 -999 22 -1.1 102710 33
2010-12-13 08:11:26 51°15.182 2°54.583 -999 36 -1.1 102710 33
2010-12-13 08:11:31 51°15.183 2°54.572 -999 43 -1.1 102710 33
2010-12-13 08:11:36 51°15.185 2°54.561 -999 44 -1.1 102710 33
2010-12-13 08:11:41 51°15.186 2°54.55 -999 23 -1.1 102710 33
2010-12-13 08:11:46 51°15.188 2°54.538 -999 31 -1.1 102710 33
2010-12-13 08:11:51 51°15.189 2°54.526 -999 19 -1.1 102710 33
2010-12-13 08:11:56 51°15.19 2°54.513 -999 323 -1.1 102710 33
2010-12-13 08:12:01 51°15.191 2°54.5 -999 326 -1.1 102720 32
2010-12-13 08:12:06 51°15.192 2°54.486 -999 33 -1.1 102720 32
2010-12-13 08:12:11 51°15.192 2°54.473 -999 27 -1.1 102710 33
2010-12-13 08:12:16 51°15.193 2°54.458 -999 319 -1.1 102710 33
2010-12-13 08:12:21 51°15.194 2°54.444 -999 22 -1.1 102710 33
2010-12-13 08:12:26 51°15.194 2°54.429 -999 33 -1.1 102710 33
2010-12-13 08:12:31 51°15.194 2°54.414 -999 22 -1 102700 33
2010-12-13 08:12:36 51°15.195 2°54.398 0.1 322 -1 102700 33
2010-12-13 08:12:41 51°15.195 2°54.383 0.1 316 -1 102710 33
2010-12-13 08:12:46 51°15.195 2°54.367 0.1 33 -1 102710 33
2010-12-13 08:12:51 51°15.193 2°54.352 -999 22 -1 102710 33
2010-12-13 08:12:56 51°15.191 2°54.337 -999 239 -1 102710 33
2010-12-13 08:13:01 51°15.189 2°54.321 -999 25 -1 102710 33
2010-12-13 08:13:06 51°15.185 2°54.307 -999 34 -1 102710 33
2010-12-13 08:13:11 51°15.181 2°54.293 -999 22 -1 102710 32
2010-12-13 08:13:16 51°15.176 2°54.279 -999 33 -1 102710 32
2010-12-13 08:13:21 51°15.171 2°54.266 -999 22 -1 102720 33
2010-12-13 08:13:26 51°15.165 2°54.253 0.1 29 -1 102720 33
2010-12-13 08:13:31 51°15.16 2°54.239 0.1 24 -1 102710 33
2010-12-13 08:13:36 51°15.153 2°54.227 0.1 237 -1 102710 33
2010-12-13 08:13:41 51°15.147 2°54.214 0.1 22 -1 102710 33
2010-12-13 08:13:46 51°15.141 2°54.201 -999 34 -1 102710 33
2010-12-13 08:13:51 51°15.134 2°54.189 -999 22 -0.9 102710 33
2010-12-13 08:13:56 51°15.127 2°54.176 -999 33 -0.9 102710 33
2010-12-13 08:14:01 51°15.12 2°54.164 -999 22 -0.9 102700 33
2010-12-13 08:14:06 51°15.113 2°54.151 -999 33 -0.9 102700 33
2010-12-13 08:14:11 51°15.106 2°54.139 -999 22 -0.9 102710 33
2010-12-13 08:14:16 51°15.099 2°54.126 -999 34 -0.9 102710 33
2010-12-13 08:14:21 51°15.092 2°54.114 -999 22 -1 102710 33
2010-12-13 08:14:26 51°15.084 2°54.101 -999 33 -1 102710 33
2010-12-13 08:14:31 51°15.077 2°54.089 -999 22 -0.9 102710 33
2010-12-13 08:14:36 51°15.069 2°54.077 -999 33 -0.9 102710 33
2010-12-13 08:14:41 51°15.061 2°54.067 -999 22 -0.9 102710 31
2010-12-13 08:14:46 51°15.052 2°54.058 -999 34 -0.9 102710 31
2010-12-13 08:14:51 51°15.044 2°54.049 -999 22 -0.9 102700 33
2010-12-13 08:14:56 51°15.034 2°54.043 -999 34 -0.9 102700 33
2010-12-13 08:15:01 51°15.025 2°54.036 -999 284 -0.9 102700 33
2010-12-13 08:15:06 51°15.015 2°54.034 -999 34 -0.9 102700 33
2010-12-13 08:15:11 51°15.005 2°54.029 -999 22 -0.9 102710 33
2010-12-13 08:15:16 51°14.996 2°54.026 0.5 33 -0.9 102710 33
2010-12-13 08:15:21 51°14.986 2°54.024 0.8 22 -0.9 102710 33
2010-12-13 08:15:26 51°14.975 2°54.022 2.5 318 -0.9 102710 33
2010-12-13 08:15:31 51°14.966 2°54.021 2.3 21 -0.9 102700 32
2010-12-13 08:15:36 51°14.956 2°54.02 2.9 30 -0.9 102700 32
2010-12-13 08:15:41 51°14.945 2°54.019 3.1 20 -0.9 102700 31
2010-12-13 08:15:46 51°14.935 2°54.019 2.1 317 -0.9 102700 31
2010-12-13 08:15:51 51°14.925 2°54.018 3.4 24 -0.9 102700 31
2010-12-13 08:15:56 51°14.915 2°54.018 3 31 -0.9 102700 31
2010-12-13 08:16:01 51°14.905 2°54.017 2.5 26 -0.9 102700 32
2010-12-13 08:16:06 51°14.894 2°54.018 2 30 -0.9 102700 32
2010-12-13 08:16:11 51°14.884 2°54.017 2.5 283 -0.9 102690 34
2010-12-13 08:16:16 51°14.874 2°54.018 2.3 31 -0.9 102690 34
2010-12-13 08:16:21 51°14.864 2°54.018 1.7 26 -0.9 102700 31
2010-12-13 08:16:26 51°14.854 2°54.02 1.1 316 -0.9 102700 31
2010-12-13 08:16:31 51°14.844 2°54.022 0.7 317 -0.9 102700 32
2010-12-13 08:16:36 51°14.834 2°54.027 3.1 322 -0.9 102700 32
2010-12-13 08:16:41 51°14.825 2°54.031 3.2 320 -0.9 102700 34
2010-12-13 08:16:46 51°14.816 2°54.038 2.7 323 -0.9 102700 34
2010-12-13 08:16:51 51°14.808 2°54.045 4.3 320 -0.9 102700 34
2010-12-13 08:16:56 51°14.799 2°54.053 3.8 321 -0.9 102700 34
2010-12-13 08:17:01 51°14.791 2°54.061 3.2 321 -0.9 102700 31
2010-12-13 08:17:06 51°14.784 2°54.07 3.6 326 -0.9 102700 31
2010-12-13 08:17:11 51°14.776 2°54.078 3.8 327 -0.9 102700 31
2010-12-13 08:17:16 51°14.769 2°54.089 2.4 326 -0.9 102700 31
2010-12-13 08:17:21 51°14.762 2°54.098 2.3 326 -0.9 102700 33
2010-12-13 08:17:26 51°14.755 2°54.108 2.6 325 -0.9 102700 33
2010-12-13 08:17:31 51°14.748 2°54.118 2.9 325 -0.9 102700 33
2010-12-13 08:17:36 51°14.741 2°54.128 3.7 323 -0.9 102700 33
2010-12-13 08:17:41 51°14.735 2°54.139 3.1 324 -0.9 102700 31
2010-12-13 08:17:46 51°14.727 2°54.149 0.1 322 -0.9 102700 31
2010-12-13 08:17:51 51°14.721 2°54.16 0.1 321 -0.9 102700 31
2010-12-13 08:17:56 51°14.715 2°54.17 0.1 326 -0.9 102700 31
2010-12-13 08:18:01 51°14.71 2°54.182 0.1 326 -0.9 102700 33
2010-12-13 08:18:06 51°14.706 2°54.195 -999 328 -0.9 102700 33
2010-12-13 08:18:11 51°14.703 2°54.207 0.1 288 -0.9 102700 32
2010-12-13 08:18:16 51°14.7 2°54.22 0.1 333 -0.9 102700 32
2010-12-13 08:18:21 51°14.698 2°54.234 0.1 327 -0.9 102700 32
2010-12-13 08:18:26 51°14.696 2°54.247 0.1 335 -0.9 102700 32
2010-12-13 08:18:31 51°14.696 2°54.261 -999 284 -0.9 102700 33
2010-12-13 08:18:36 51°14.694 2°54.275 -999 332 -0.9 102700 33
2010-12-13 08:18:41 51°14.694 2°54.288 0.7 329 -0.9 102700 32
2010-12-13 08:18:46 51°14.693 2°54.303 0.1 330 -0.9 102700 32
2010-12-13 08:18:51 51°14.694 2°54.317 0.1 329 -0.9 102700 32
2010-12-13 08:18:56 51°14.693 2°54.332 -999 330 -0.9 102700 32
2010-12-13 08:19:01 51°14.694 2°54.346 -999 328 -0.9 102710 31
2010-12-13 08:19:06 51°14.693 2°54.36 -999 328 -0.9 102710 31
2010-12-13 08:19:11 51°14.695 2°54.375 -999 330 -0.9 102700 32
2010-12-13 08:19:16 51°14.694 2°54.39 -999 331 -0.9 102700 32
2010-12-13 08:19:21 51°14.696 2°54.404 -999 335 -0.9 102700 32
2010-12-13 08:19:26 51°14.697 2°54.418 5 337 -0.9 102700 32
2010-12-13 08:19:31 51°14.7 2°54.432 5.4 340 -0.9 102700 32
2010-12-13 08:19:36 51°14.703 2°54.446 5.2 340 -0.9 102700 32
2010-12-13 08:19:41 51°14.707 2°54.458 4.5 342 -0.9 102690 34
2010-12-13 08:19:46 51°14.711 2°54.471 3.3 346 -0.9 102690 34
2010-12-13 08:19:51 51°14.716 2°54.483 4.5 345 -0.9 102690 33
2010-12-13 08:19:56 51°14.721 2°54.494 3.2 344 -0.9 102690 33
2010-12-13 08:20:01 51°14.727 2°54.505 3 344 -0.9 102700 32
2010-12-13 08:20:06 51°14.733 2°54.516 4.4 346 -0.9 102700 32
2010-12-13 08:20:11 51°14.738 2°54.527 3.8 344 -0.9 102700 32
2010-12-13 08:20:16 51°14.745 2°54.537 4.6 345 -0.9 102700 32
2010-12-13 08:20:21 51°14.75 2°54.548 3.3 344 -0.9 102710 34
2010-12-13 08:20:26 51°14.757 2°54.558 3.7 345 -0.9 102710 34
2010-12-13 08:20:31 51°14.763 2°54.569 4.5 344 -0.9 102700 31
2010-12-13 08:20:36 51°14.77 2°54.579 4.8 343 -0.9 102700 31
2010-12-13 08:20:41 51°14.777 2°54.589 4.7 343 -0.9 102700 34
2010-12-13 08:20:46 51°14.784 2°54.599 4.6 348 -0.9 102700 34
2010-12-13 08:20:51 51°14.791 2°54.609 4.5 345 -1 102700 31
2010-12-13 08:20:56 51°14.798 2°54.619 4.5 343 -1 102700 31
2010-12-13 08:21:01 51°14.805 2°54.629 4.3 341 -1 102700 31
2010-12-13 08:21:06 51°14.812 2°54.639 4.4 344 -1 102700 31
2010-12-13 08:21:11 51°14.819 2°54.649 4.3 344 -1 102700 33
2010-12-13 08:21:16 51°14.826 2°54.659 4.7 341 -1 102700 33
2010-12-13 08:21:21 51°14.834 2°54.667 4.7 341 -1 102710 34
2010-12-13 08:21:26 51°14.841 2°54.676 5.3 345 -1 102710 34
2010-12-13 08:21:31 51°14.85 2°54.683 5.1 349 -1 102700 34
2010-12-13 08:21:36 51°14.858 2°54.689 3.5 351 -1 102700 34
2010-12-13 08:21:41 51°14.866 2°54.695 3.8 349 -1 102710 34
2010-12-13 08:21:47 51°14.876 2°54.701 3 353 -1 102710 34
2010-12-13 08:21:51 51°14.883 2°54.705 3.9 351 -1 102700 32
2010-12-13 08:21:55 51°14.889 2°54.709 2 354 -1 102700 32
2010-12-13 08:22:01 51°14.899 2°54.713 3.1 350 -1 102700 33
2010-12-13 08:22:06 51°14.907 2°54.716 3 348 -1 102700 33
2010-12-13 08:22:11 51°14.916 2°54.719 2.5 345 -1 102700 34
2010-12-13 08:22:16 51°14.924 2°54.721 2.2 351 -1 102700 34
2010-12-13 08:22:21 51°14.932 2°54.722 1.8 354 -1 102700 31
2010-12-13 08:22:27 51°14.942 2°54.722 1.9 352 -1 102700 31
2010-12-13 08:22:31 51°14.948 2°54.721 1.2 355 -1 102700 31
2010-12-13 08:22:36 51°14.956 2°54.72 1.9 -999 -1 102700 31
2010-12-13 08:22:41 51°14.964 2°54.718 1.7 359 -1 102700 30
2010-12-13 08:22:46 51°14.971 2°54.716 0.3 3 -1 102700 30
2010-12-13 08:22:51 51°14.979 2°54.713 0.2 359 -1 102700 31
2010-12-13 08:22:56 51°14.987 2°54.709 0.1 357 -1 102700 31
2010-12-13 08:23:01 51°14.994 2°54.706 0.7 359 -1 102700 30
2010-12-13 08:23:06 51°15.002 2°54.702 0.1 359 -1 102700 30
2010-12-13 08:23:11 51°15.009 2°54.697 0.3 356 -1 102710 34
2010-12-13 08:23:16 51°15.017 2°54.693 1 356 -1 102710 34
2010-12-13 08:23:21 51°15.024 2°54.688 0.6 357 -1 102700 32
2010-12-13 08:23:26 51°15.031 2°54.683 1 354 -1 102700 32
2010-12-13 08:23:31 51°15.039 2°54.678 0.5 354 -1 102710 33
2010-12-13 08:23:36 51°15.046 2°54.674 0.5 2 -1 102710 33
2010-12-13 08:23:41 51°15.054 2°54.669 0.2 2 -1 102710 30
2010-12-13 08:23:46 51°15.061 2°54.665 0.5 4 -1 102710 30
2010-12-13 08:23:51 51°15.069 2°54.66 0.2 357 -1 102710 32
2010-12-13 08:23:56 51°15.076 2°54.657 1.2 358 -1 102710 32
2010-12-13 08:24:01 51°15.084 2°54.653 0.7 -999 -1 102700 33
2010-12-13 08:24:06 51°15.092 2°54.65 0.8 1 -1 102700 33
2010-12-13 08:24:11 51°15.1 2°54.646 1.1 359 -1 102710 34
2010-12-13 08:24:16 51°15.108 2°54.644 0.1 355 -1 102710 34
2010-12-13 08:24:21 51°15.116 2°54.641 0.1 358 -1 102700 32
2010-12-13 08:24:26 51°15.123 2°54.638 -999 -999 -1 102700 32
2010-12-13 08:24:31 51°15.131 2°54.636 -999 359 -1 102710 31
2010-12-13 08:24:36 51°15.139 2°54.634 -999 359 -1 102710 31
2010-12-13 08:24:41 51°15.147 2°54.631 -999 1 -1 102710 32
2010-12-13 08:24:46 51°15.155 2°54.629 -999 3 -1 102710 32
2010-12-13 08:24:51 51°15.163 2°54.627 -999 359 -1 102710 32
2010-12-13 08:24:56 51°15.171 2°54.625 -999 360 -1 102710 32
2010-12-13 08:25:01 51°15.179 2°54.623 -999 360 -1 102700 32
2010-12-13 08:25:06 51°15.187 2°54.621 -999 358 -1 102700 32
2010-12-13 08:25:11 51°15.195 2°54.619 -999 359 -1 102710 32
2010-12-13 08:25:16 51°15.204 2°54.617 -999 353 -1 102710 32
2010-12-13 08:25:21 51°15.212 2°54.615 -999 356 -1 102710 31
2010-12-13 08:25:26 51°15.22 2°54.613 -999 356 -1 102710 31
2010-12-13 08:25:31 51°15.228 2°54.61 -999 359 -1 102710 32
2010-12-13 08:25:36 51°15.236 2°54.608 -999 358 -1 102710 32
2010-12-13 08:25:41 51°15.244 2°54.605 -999 1 -1 102710 32
2010-12-13 08:25:46 51°15.252 2°54.603 -999 1 -1 102710 32
2010-12-13 08:25:51 51°15.26 2°54.6 -999 1 -1 102710 32
2010-12-13 08:25:56 51°15.269 2°54.597 -999 -999 -1 102710 32
2010-12-13 08:26:01 51°15.277 2°54.594 -999 359 -1 102710 32
2010-12-13 08:26:06 51°15.285 2°54.592 -999 353 -1 102710 32
2010-12-13 08:26:11 51°15.293 2°54.589 -999 1 -1 102710 32
2010-12-13 08:26:16 51°15.301 2°54.586 -999 -999 -1 102710 32
2010-12-13 08:26:21 51°15.31 2°54.583 -999 -999 -1 102710 32
2010-12-13 08:26:26 51°15.318 2°54.581 -999 359 -1 102710 32
2010-12-13 08:26:31 51°15.326 2°54.578 -999 359 -1 102710 32
2010-12-13 08:26:36 51°15.334 2°54.575 -999 353 -1 102710 32
2010-12-13 08:26:41 51°15.342 2°54.572 -999 358 -1 102710 32
2010-12-13 08:26:46 51°15.35 2°54.569 -999 358 -1 102710 32
2010-12-13 08:26:51 51°15.358 2°54.566 -999 3 -0.9 102710 32
2010-12-13 08:26:56 51°15.365 2°54.563 -999 355 -0.9 102710 32
2010-12-13 08:27:01 51°15.373 2°54.56 -999 -999 -0.9 102710 32
2010-12-13 08:27:06 51°15.381 2°54.557 -999 -999 -0.9 102710 32
2010-12-13 08:27:11 51°15.389 2°54.553 -999 359 -0.9 102710 32
2010-12-13 08:27:16 51°15.397 2°54.55 -999 359 -0.9 102710 32
2010-12-13 08:27:21 51°15.405 2°54.546 -999 1 -0.9 102710 32
2010-12-13 08:27:26 51°15.413 2°54.542 -999 3 -0.9 102710 32
2010-12-13 08:27:31 51°15.42 2°54.538 -999 7 -0.9 102710 32
2010-12-13 08:27:36 51°15.428 2°54.535 -999 2 -0.9 102710 32
2010-12-13 08:27:41 51°15.437 2°54.531 -999 4 -0.9 102710 32
2010-12-13 08:27:46 51°15.445 2°54.527 -999 359 -0.9 102710 32
2010-12-13 08:27:51 51°15.454 2°54.523 -999 2 -0.9 102710 32
2010-12-13 08:27:56 51°15.464 2°54.519 -999 355 -0.9 102710 32
2010-12-13 08:28:01 51°15.474 2°54.515 -999 356 -0.9 102710 31
2010-12-13 08:28:06 51°15.485 2°54.511 -999 356 -0.9 102710 31
2010-12-13 08:28:11 51°15.496 2°54.508 -999 357 -0.9 102700 32
2010-12-13 08:28:15 51°15.505 2°54.504 -999 353 -0.9 102700 32
2010-12-13 08:28:21 51°15.519 2°54.5 -999 354 -1 102700 32
2010-12-13 08:28:27 51°15.533 2°54.496 -999 353 -1 102700 32
2010-12-13 08:28:31 51°15.543 2°54.493 -999 353 -1 102710 32
2010-12-13 08:28:36 51°15.555 2°54.49 -999 351 -1 102710 32
2010-12-13 08:28:41 51°15.568 2°54.487 -999 352 -1 102710 32
2010-12-13 08:28:47 51°15.583 2°54.483 -999 349 -1 102710 32
2010-12-13 08:28:51 51°15.593 2°54.48 -999 352 -1 102700 32
2010-12-13 08:28:56 51°15.606 2°54.476 -999 354 -1 102700 32
2010-12-13 08:29:01 51°15.618 2°54.469 -999 342 -0.9 102710 32
2010-12-13 08:29:07 51°15.633 2°54.461 -999 349 -0.9 102710 32
2010-12-13 08:29:11 51°15.642 2°54.455 -999 346 -0.9 102700 32
2010-12-13 08:29:16 51°15.654 2°54.447 -999 343 -0.9 102700 32
2010-12-13 08:29:21 51°15.666 2°54.438 -999 346 -0.9 102710 32
2010-12-13 08:29:26 51°15.678 2°54.429 -999 349 -0.9 102710 32
2010-12-13 08:29:31 51°15.69 2°54.419 0.1 350 -0.9 102710 32
2010-12-13 08:29:36 51°15.702 2°54.409 0.1 353 -0.9 102710 32
2010-12-13 08:29:41 51°15.714 2°54.399 0.1 349 -0.9 102700 32
2010-12-13 08:29:46 51°15.726 2°54.389 -999 348 -0.9 102700 32
2010-12-13 08:29:51 51°15.738 2°54.378 -999 348 -0.9 102710 32
2010-12-13 08:29:56 51°15.75 2°54.367 -999 349 -0.9 102710 32
2010-12-13 08:30:01 51°15.762 2°54.356 -999 349 -0.9 102710 32
2010-12-13 08:30:06 51°15.774 2°54.345 -999 351 -0.9 102710 32
2010-12-13 08:30:11 51°15.787 2°54.334 -999 349 -0.9 102710 32
2010-12-13 08:30:16 51°15.8 2°54.325 -999 352 -0.9 102710 32
2010-12-13 08:30:21 51°15.812 2°54.316 -999 347 -0.9 102700 32
2010-12-13 08:30:26 51°15.825 2°54.308 -999 350 -0.9 102700 32
2010-12-13 08:30:31 51°15.838 2°54.301 -999 351 -0.9 102710 32
2010-12-13 08:30:36 51°15.851 2°54.296 -999 352 -0.9 102710 32
2010-12-13 08:30:41 51°15.865 2°54.291 -999 350 -0.9 102710 31
2010-12-13 08:30:46 51°15.879 2°54.287 -999 350 -0.9 102710 31
2010-12-13 08:30:51 51°15.893 2°54.284 -999 348 -0.9 102710 32
2010-12-13 08:30:56 51°15.906 2°54.281 -999 349 -0.9 102710 32
2010-12-13 08:31:01 51°15.92 2°54.279 -999 352 -0.9 102710 32
2010-12-13 08:31:06 51°15.934 2°54.277 -999 350 -0.9 102710 32
2010-12-13 08:31:11 51°15.948 2°54.276 -999 349 -0.9 102710 32
2010-12-13 08:31:16 51°15.962 2°54.276 4.1 351 -0.9 102710 32
2010-12-13 08:31:21 51°15.976 2°54.275 2.9 351 -0.9 102710 32
2010-12-13 08:31:26 51°15.99 2°54.275 3.8 353 -0.9 102710 32
2010-12-13 08:31:31 51°16.005 2°54.275 4 354 -0.8 102710 34
2010-12-13 08:31:36 51°16.019 2°54.274 3.9 351 -0.8 102710 34
2010-12-13 08:31:41 51°16.033 2°54.272 4.4 349 -0.8 102690 31
2010-12-13 08:31:46 51°16.047 2°54.271 3.4 352 -0.8 102690 31
2010-12-13 08:31:51 51°16.061 2°54.268 3.8 353 -0.8 102700 33
2010-12-13 08:31:56 51°16.075 2°54.265 4.5 350 -0.8 102700 33
2010-12-13 08:32:01 51°16.089 2°54.262 3.1 356 -0.8 102700 33
2010-12-13 08:32:06 51°16.104 2°54.259 3.9 350 -0.8 102700 33
2010-12-13 08:32:11 51°16.118 2°54.256 3.6 352 -0.8 102700 32
2010-12-13 08:32:16 51°16.132 2°54.253 3.8 350 -0.8 102700 32
2010-12-13 08:32:21 51°16.146 2°54.25 4.1 350 -0.8 102700 33
2010-12-13 08:32:26 51°16.159 2°54.248 4.7 350 -0.8 102700 33
2010-12-13 08:32:31 51°16.172 2°54.246 3.2 348 -0.8 102700 31
2010-12-13 08:32:36 51°16.184 2°54.244 2.8 351 -0.8 102700 31
2010-12-13 08:32:41 51°16.195 2°54.243 3 351 -0.8 102700 34
2010-12-13 08:32:46 51°16.206 2°54.242 2.7 354 -0.8 102700 34
2010-12-13 08:32:51 51°16.216 2°54.242 2 356 -0.8 102710 34
2010-12-13 08:32:56 51°16.226 2°54.243 3.8 354 -0.8 102710 34
2010-12-13 08:33:01 51°16.235 2°54.245 3.1 352 -0.8 102710 32
2010-12-13 08:33:06 51°16.243 2°54.248 3 354 -0.8 102710 32
2010-12-13 08:33:11 51°16.251 2°54.252 2.9 351 -0.8 102700 30
2010-12-13 08:33:16 51°16.258 2°54.256 3.6 349 -0.8 102700 30
2010-12-13 08:33:21 51°16.264 2°54.261 3.5 350 -0.8 102710 33
2010-12-13 08:33:26 51°16.269 2°54.267 2.9 351 -0.8 102710 33
2010-12-13 08:33:31 51°16.275 2°54.273 3.2 351 -0.7 102710 33
2010-12-13 08:33:36 51°16.279 2°54.279 3.9 349 -0.7 102710 33
2010-12-13 08:33:41 51°16.283 2°54.285 4.3 355 -0.8 102710 34
2010-12-13 08:33:46 51°16.287 2°54.291 3.3 352 -0.8 102710 34
2010-12-13 08:33:51 51°16.29 2°54.297 3.4 351 -0.7 102710 34
2010-12-13 08:33:56 51°16.292 2°54.303 3.5 350 -0.7 102710 34
2010-12-13 08:34:01 51°16.295 2°54.309 3.7 351 -0.7 102710 34
2010-12-13 08:34:06 51°16.297 2°54.315 2.8 348 -0.7 102710 34
2010-12-13 08:34:11 51°16.299 2°54.321 2 351 -0.7 102700 30
2010-12-13 08:34:16 51°16.301 2°54.327 2.9 348 -0.7 102700 30
2010-12-13 08:34:21 51°16.302 2°54.332 2.5 346 -0.7 102710 31
2010-12-13 08:34:26 51°16.303 2°54.337 3 346 -0.7 102710 31
2010-12-13 08:34:31 51°16.305 2°54.341 1.7 350 -0.7 102700 34
2010-12-13 08:34:36 51°16.306 2°54.345 2.2 353 -0.7 102700 34
2010-12-13 08:34:41 51°16.307 2°54.349 2.8 352 -0.7 102710 34
2010-12-13 08:34:46 51°16.308 2°54.352 0.2 352 -0.7 102710 34
2010-12-13 08:34:51 51°16.309 2°54.355 0.1 354 -0.7 102710 34
2010-12-13 08:34:56 51°16.31 2°54.357 -999 4 -0.7 102710 34
2010-12-13 08:35:01 51°16.311 2°54.358 -999 358 -0.7 102700 32
2010-12-13 08:35:06 51°16.312 2°54.359 -999 354 -0.7 102700 32
2010-12-13 08:35:11 51°16.312 2°54.36 -999 350 -0.7 102710 32
2010-12-13 08:35:16 51°16.313 2°54.362 -999 356 -0.7 102710 32
2010-12-13 08:35:21 51°16.313 2°54.363 -999 357 -0.6 102700 32
2010-12-13 08:35:26 51°16.314 2°54.364 -999 1 -0.6 102700 32
2010-12-13 08:35:31 51°16.315 2°54.365 -999 357 -0.6 102710 32
2010-12-13 08:35:36 51°16.315 2°54.366 -999 360 -0.6 102710 32
2010-12-13 08:35:41 51°16.316 2°54.366 -999 359 -0.6 102700 32
2010-12-13 08:35:46 51°16.316 2°54.367 -999 358 -0.6 102700 32
2010-12-13 08:35:51 51°16.317 2°54.368 -999 -999 -0.6 102720 32
2010-12-13 08:35:56 51°16.317 2°54.368 2 1 -0.6 102720 32
2010-12-13 08:36:01 51°16.317 2°54.368 1.8 1 -0.7 102710 31
2010-12-13 08:36:06 51°16.318 2°54.368 1 2 -0.7 102710 31
2010-12-13 08:36:11 51°16.318 2°54.369 0.8 5 -0.6 102710 32
2010-12-13 08:36:16 51°16.319 2°54.368 1.2 2 -0.6 102710 32
2010-12-13 08:36:21 51°16.319 2°54.368 1.6 4 -0.6 102720 34
2010-12-13 08:36:26 51°16.319 2°54.368 0.7 3 -0.6 102720 34
2010-12-13 08:36:31 51°16.319 2°54.367 1.2 355 -0.6 102710 32
2010-12-13 08:36:36 51°16.32 2°54.367 1.1 2 -0.6 102710 32
2010-12-13 08:36:41 51°16.32 2°54.366 0.7 359 -0.6 102710 34
2010-12-13 08:36:46 51°16.32 2°54.366 1.8 -999 -0.6 102710 34
2010-12-13 08:36:51 51°16.32 2°54.365 1.4 358 -0.6 102720 35
2010-12-13 08:36:56 51°16.32 2°54.365 1.1 356 -0.6 102720 35
2010-12-13 08:37:01 51°16.32 2°54.363 0.4 360 -0.7 102710 32
2010-12-13 08:37:06 51°16.32 2°54.363 1.2 359 -0.7 102710 32
2010-12-13 08:37:11 51°16.32 2°54.362 0.9 1 -0.6 102720 34
2010-12-13 08:37:16 51°16.32 2°54.361 0.9 358 -0.6 102720 34
2010-12-13 08:37:21 51°16.32 2°54.36 0.3 -999 -0.6 102710 34
2010-12-13 08:37:26 51°16.32 2°54.359 0.2 4 -0.6 102710 34
2010-12-13 08:37:31 51°16.32 2°54.358 0.1 5 -0.6 102710 31
2010-12-13 08:37:36 51°16.32 2°54.357 1 5 -0.6 102710 31
2010-12-13 08:37:41 51°16.32 2°54.356 0.7 5 -0.6 102720 34
2010-12-13 08:37:46 51°16.32 2°54.355 0.1 4 -0.6 102720 34
2010-12-13 08:37:51 51°16.321 2°54.353 0.7 2 -0.6 102710 32
2010-12-13 08:37:56 51°16.32 2°54.353 0.6 359 -0.6 102710 32
2010-12-13 08:38:01 51°16.321 2°54.352 0.2 3 -0.6 102720 32
2010-12-13 08:38:06 51°16.32 2°54.351 0.1 -999 -0.6 102720 32
2010-12-13 08:38:11 51°16.321 2°54.349 0.1 1 -0.6 102720 32
2010-12-13 08:38:16 51°16.32 2°54.348 0.1 5 -0.6 102720 32
2010-12-13 08:38:21 51°16.321 2°54.347 0.1 5 -0.6 102710 32
2010-12-13 08:38:26 51°16.321 2°54.345 0.5 357 -0.6 102710 32
2010-12-13 08:38:31 51°16.321 2°54.344 1 355 -0.6 102720 32
2010-12-13 08:38:36 51°16.32 2°54.343 0.2 355 -0.6 102720 32
2010-12-13 08:38:41 51°16.32 2°54.341 0.2 356 -0.6 102710 31
2010-12-13 08:38:46 51°16.32 2°54.34 0.1 355 -0.6 102710 31
2010-12-13 08:38:51 51°16.32 2°54.339 0.1 1 -0.6 102720 32
2010-12-13 08:38:56 51°16.32 2°54.337 0.1 4 -0.6 102720 32
2010-12-13 08:39:01 51°16.32 2°54.337 0.1 1 -0.5 102720 32
2010-12-13 08:39:06 51°16.32 2°54.335 -999 3 -0.5 102720 32
2010-12-13 08:39:11 51°16.319 2°54.334 -999 3 -0.5 102710 32
2010-12-13 08:39:16 51°16.319 2°54.333 -999 2 -0.5 102710 32
2010-12-13 08:39:21 51°16.319 2°54.331 0.1 359 -0.6 102720 32
2010-12-13 08:39:26 51°16.318 2°54.33 0.1 1 -0.6 102720 32
2010-12-13 08:39:31 51°16.318 2°54.328 0.1 6 -0.6 102720 32
2010-12-13 08:39:36 51°16.318 2°54.328 0.1 9 -0.6 102720 32
2010-12-13 08:39:41 51°16.318 2°54.326 0.1 10 -0.6 102720 32
2010-12-13 08:39:46 51°16.317 2°54.325 -999 16 -0.6 102720 32
2010-12-13 08:39:51 51°16.317 2°54.323 -999 10 -0.5 102720 32
2010-12-13 08:39:56 51°16.317 2°54.322 -999 7 -0.5 102720 32
2010-12-13 08:40:01 51°16.316 2°54.321 -999 8 -0.5 102720 32
2010-12-13 08:40:06 51°16.316 2°54.319 0.1 8 -0.5 102720 32
2010-12-13 08:40:11 51°16.315 2°54.318 0.1 7 -0.5 102720 32
2010-12-13 08:40:16 51°16.315 2°54.317 1.3 8 -0.5 102720 32
2010-12-13 08:40:21 51°16.314 2°54.315 1.2 5 -0.5 102720 32
2010-12-13 08:40:26 51°16.314 2°54.314 1 4 -0.5 102720 32
2010-12-13 08:40:31 51°16.313 2°54.312 0.3 4 -0.5 102720 32
2010-12-13 08:40:36 51°16.313 2°54.311 0.3 6 -0.5 102720 32
2010-12-13 08:40:41 51°16.313 2°54.309 0.5 3 -0.5 102720 32
2010-12-13 08:40:46 51°16.312 2°54.309 0.2 9 -0.5 102720 32
2010-12-13 08:40:51 51°16.311 2°54.307 0.2 9 -0.4 102730 32
2010-12-13 08:40:56 51°16.311 2°54.306 0.7 16 -0.4 102730 32
2010-12-13 08:41:01 51°16.31 2°54.304 0.3 11 -0.4 102730 32
2010-12-13 08:41:06 51°16.309 2°54.303 1.5 15 -0.4 102730 32
2010-12-13 08:41:11 51°16.309 2°54.301 0.9 18 -0.4 102720 32
2010-12-13 08:41:16 51°16.308 2°54.3 0.8 26 -0.4 102720 32
2010-12-13 08:41:21 51°16.308 2°54.298 1.1 25 -0.4 102720 31
2010-12-13 08:41:26 51°16.307 2°54.297 0.8 21 -0.4 102720 31
2010-12-13 08:41:31 51°16.306 2°54.296 0.7 20 -0.4 102720 31
2010-12-13 08:41:36 51°16.305 2°54.294 0.2 18 -0.4 102720 31
2010-12-13 08:41:41 51°16.305 2°54.293 0.1 18 -0.4 102720 31
2010-12-13 08:41:46 51°16.304 2°54.292 -999 24 -0.4 102720 31
2010-12-13 08:41:51 51°16.303 2°54.29 -999 19 -0.4 102720 32
2010-12-13 08:41:56 51°16.302 2°54.289 -999 24 -0.4 102720 32
2010-12-13 08:42:01 51°16.302 2°54.287 -999 19 -0.4 102720 32
2010-12-13 08:42:06 51°16.301 2°54.286 0.9 22 -0.4 102720 32
2010-12-13 08:42:11 51°16.3 2°54.284 0.6 22 -0.4 102720 32
2010-12-13 08:42:16 51°16.299 2°54.282 0.2 23 -0.4 102720 32
2010-12-13 08:42:21 51°16.298 2°54.281 0.8 21 -0.4 102720 31
2010-12-13 08:42:26 51°16.298 2°54.279 1 21 -0.4 102720 31
2010-12-13 08:42:31 51°16.297 2°54.278 0.7 22 -0.4 102720 32
2010-12-13 08:42:36 51°16.296 2°54.276 0.6 20 -0.4 102720 32
2010-12-13 08:42:41 51°16.295 2°54.275 0.3 22 -0.4 102720 31
2010-12-13 08:42:46 51°16.294 2°54.273 0.1 21 -0.4 102720 31
2010-12-13 08:42:51 51°16.294 2°54.271 0.1 19 -0.4 102720 32
2010-12-13 08:42:56 51°16.292 2°54.27 -999 19 -0.4 102720 32
2010-12-13 08:43:01 51°16.292 2°54.268 -999 19 -0.4 102720 32
2010-12-13 08:43:06 51°16.291 2°54.267 -999 20 -0.4 102720 32
2010-12-13 08:43:11 51°16.29 2°54.265 -999 17 -0.4 102720 32
2010-12-13 08:43:16 51°16.289 2°54.264 0.4 18 -0.4 102720 32
2010-12-13 08:43:21 51°16.288 2°54.262 0.2 19 -0.4 102720 32
2010-12-13 08:43:26 51°16.287 2°54.26 0.1 20 -0.4 102720 32
2010-12-13 08:43:31 51°16.287 2°54.258 0.1 18 -0.4 102720 32
2010-12-13 08:43:36 51°16.286 2°54.257 -999 20 -0.4 102720 32
2010-12-13 08:43:41 51°16.285 2°54.255 -999 18 -0.4 102720 32
2010-12-13 08:43:46 51°16.284 2°54.253 -999 23 -0.4 102720 32
2010-12-13 08:43:51 51°16.283 2°54.252 -999 20 -0.4 102720 32
2010-12-13 08:43:56 51°16.282 2°54.25 -999 25 -0.4 102720 32
2010-12-13 08:44:01 51°16.281 2°54.248 -999 22 -0.4 102720 31
2010-12-13 08:44:06 51°16.281 2°54.246 -999 22 -0.4 102720 31
2010-12-13 08:44:11 51°16.279 2°54.244 -999 17 -0.4 102720 32
2010-12-13 08:44:16 51°16.279 2°54.242 -999 22 -0.4 102720 32
2010-12-13 08:44:21 51°16.278 2°54.241 -999 20 -0.4 102720 32
2010-12-13 08:44:26 51°16.277 2°54.239 0.1 17 -0.4 102720 32
2010-12-13 08:44:31 51°16.276 2°54.237 0.4 18 -0.4 102720 32
2010-12-13 08:44:36 51°16.275 2°54.236 0.1 16 -0.4 102720 32
2010-12-13 08:44:41 51°16.274 2°54.234 0.1 14 -0.4 102720 32
2010-12-13 08:44:46 51°16.273 2°54.232 0.1 26 -0.4 102720 32
2010-12-13 08:44:51 51°16.272 2°54.231 0.1 21 -0.4 102720 32
2010-12-13 08:44:56 51°16.271 2°54.228 0.1 20 -0.4 102720 32
2010-12-13 08:45:01 51°16.27 2°54.227 0.9 22 -0.4 102710 32
2010-12-13 08:45:06 51°16.269 2°54.225 0.2 23 -0.4 102710 32
2010-12-13 08:45:11 51°16.268 2°54.223 0.2 20 -0.4 102710 32
2010-12-13 08:45:16 51°16.268 2°54.221 0.1 23 -0.4 102710 32
2010-12-13 08:45:21 51°16.266 2°54.22 1.1 18 -0.4 102720 34
2010-12-13 08:45:26 51°16.266 2°54.217 1 15 -0.4 102720 34
2010-12-13 08:45:31 51°16.265 2°54.216 1.5 17 -0.4 102710 32
2010-12-13 08:45:36 51°16.264 2°54.213 0.7 14 -0.4 102710 32
2010-12-13 08:45:41 51°16.263 2°54.212 1.5 13 -0.4 102710 33
2010-12-13 08:45:46 51°16.262 2°54.209 0.1 12 -0.4 102710 33
2010-12-13 08:45:51 51°16.261 2°54.208 0.1 10 -0.4 102720 31
2010-12-13 08:45:56 51°16.26 2°54.206 -999 13 -0.4 102720 31
2010-12-13 08:46:01 51°16.259 2°54.204 -999 13 -0.4 102710 31
2010-12-13 08:46:07 51°16.258 2°54.202 -999 11 -0.4 102710 31
2010-12-13 08:46:11 51°16.258 2°54.201 -999 12 -0.4 102710 33
2010-12-13 08:46:16 51°16.257 2°54.199 -999 13 -0.4 102710 33
2010-12-13 08:46:21 51°16.256 2°54.197 -999 15 -0.4 102710 32
2010-12-13 08:46:27 51°16.255 2°54.194 0.1 7 -0.4 102710 32
2010-12-13 08:46:31 51°16.254 2°54.193 0.1 10 -0.4 102710 32
2010-12-13 08:46:35 51°16.253 2°54.191 0.1 7 -0.4 102710 32
2010-12-13 08:46:41 51°16.252 2°54.189 0.1 11 -0.4 102720 31
2010-12-13 08:46:46 51°16.251 2°54.187 -999 11 -0.4 102720 31
2010-12-13 08:46:51 51°16.25 2°54.186 -999 13 -0.4 102710 32
2010-12-13 08:46:56 51°16.249 2°54.184 -999 16 -0.4 102710 32
2010-12-13 08:47:01 51°16.248 2°54.182 -999 13 -0.4 102710 32
2010-12-13 08:47:06 51°16.247 2°54.18 -999 18 -0.4 102710 32
2010-12-13 08:47:11 51°16.246 2°54.178 -999 17 -0.4 102710 32
2010-12-13 08:47:16 51°16.245 2°54.176 -999 15 -0.4 102710 32
2010-12-13 08:47:21 51°16.244 2°54.174 -999 17 -0.4 102720 32
2010-12-13 08:47:26 51°16.243 2°54.172 -999 22 -0.4 102720 32
2010-12-13 08:47:31 51°16.242 2°54.17 -999 15 -0.4 102720 32
2010-12-13 08:47:36 51°16.241 2°54.168 0.4 17 -0.4 102720 32
2010-12-13 08:47:41 51°16.24 2°54.167 0.2 16 -0.4 102710 32
2010-12-13 08:47:46 51°16.239 2°54.164 0.1 19 -0.4 102710 32
2010-12-13 08:47:51 51°16.238 2°54.163 0.1 19 -0.3 102720 32
2010-12-13 08:47:56 51°16.237 2°54.161 0.9 20 -0.3 102720 32
2010-12-13 08:48:01 51°16.236 2°54.159 0.9 18 -0.3 102710 32
2010-12-13 08:48:06 51°16.235 2°54.157 1.1 17 -0.3 102710 32
2010-12-13 08:48:11 51°16.234 2°54.156 1 17 -0.3 102710 32
2010-12-13 08:48:16 51°16.233 2°54.153 0.8 14 -0.3 102710 32
2010-12-13 08:48:21 51°16.232 2°54.152 0.9 10 -0.3 102710 30
2010-12-13 08:48:26 51°16.231 2°54.15 0.2 14 -0.3 102710 30
2010-12-13 08:48:31 51°16.23 2°54.148 0.1 12 -0.3 102710 31
2010-12-13 08:48:36 51°16.229 2°54.146 0.1 11 -0.3 102710 31
2010-12-13 08:48:41 51°16.228 2°54.144 0.1 11 -0.3 102720 31
2010-12-13 08:48:46 51°16.227 2°54.143 0.1 11 -0.3 102720 31
2010-12-13 08:48:51 51°16.227 2°54.14 0.1 9 -0.3 102720 32
2010-12-13 08:48:56 51°16.225 2°54.14 0.3 10 -0.3 102720 32
2010-12-13 08:49:01 51°16.225 2°54.137 0.2 8 -0.3 102720 32
2010-12-13 08:49:06 51°16.224 2°54.136 0.1 14 -0.3 102720 32
2010-12-13 08:49:11 51°16.223 2°54.134 -999 11 -0.3 102720 32
2010-12-13 08:49:16 51°16.222 2°54.133 -999 11 -0.3 102720 32
2010-12-13 08:49:21 51°16.221 2°54.131 -999 12 -0.3 102720 31
2010-12-13 08:49:26 51°16.22 2°54.13 0.1 18 -0.3 102720 31
2010-12-13 08:49:31 51°16.219 2°54.129 0.1 15 -0.4 102720 32
2010-12-13 08:49:35 51°16.218 2°54.127 -999 15 -0.4 102720 32
2010-12-13 08:49:41 51°16.217 2°54.126 1.2 14 -0.3 102720 32
2010-12-13 08:49:46 51°16.216 2°54.125 1.9 20 -0.3 102720 32
2010-12-13 08:49:51 51°16.215 2°54.123 2.3 21 -0.3 102720 32
2010-12-13 08:49:56 51°16.214 2°54.122 1.9 18 -0.3 102720 32
2010-12-13 08:50:01 51°16.213 2°54.121 2 18 -0.3 102720 30
2010-12-13 08:50:06 51°16.212 2°54.12 1.5 11 -0.3 102720 30
2010-12-13 08:50:11 51°16.211 2°54.118 0.9 16 -0.4 102720 33
2010-12-13 08:50:16 51°16.21 2°54.117 0.6 12 -0.4 102720 33
2010-12-13 08:50:21 51°16.21 2°54.116 1 10 -0.4 102720 31
2010-12-13 08:50:26 51°16.209 2°54.114 0.2 9 -0.4 102720 31
2010-12-13 08:50:31 51°16.208 2°54.113 0.1 14 -0.4 102720 30
2010-12-13 08:50:35 51°16.207 2°54.112 0.2 15 -0.4 102720 30
2010-12-13 08:50:41 51°16.206 2°54.111 0.1 16 -0.4 102710 33
2010-12-13 08:50:47 51°16.205 2°54.108 1.3 13 -0.4 102710 33
2010-12-13 08:50:51 51°16.204 2°54.107 1.2 14 -0.4 102710 30
2010-12-13 08:50:56 51°16.204 2°54.106 0.4 14 -0.4 102710 30
2010-12-13 08:51:01 51°16.203 2°54.104 0.3 12 -0.4 102710 34
2010-12-13 08:51:06 51°16.202 2°54.103 0.5 14 -0.4 102710 34
2010-12-13 08:51:11 51°16.202 2°54.101 0.2 17 -0.4 102720 32
2010-12-13 08:51:16 51°16.201 2°54.1 0.2 17 -0.4 102720 32
2010-12-13 08:51:21 51°16.2 2°54.099 0.1 16 -0.4 102720 32
2010-12-13 08:51:26 51°16.199 2°54.097 0.8 12 -0.4 102720 32
2010-12-13 08:51:31 51°16.199 2°54.095 0.2 15 -0.4 102720 32
2010-12-13 08:51:36 51°16.198 2°54.094 0.2 13 -0.4 102720 32
2010-12-13 08:51:41 51°16.197 2°54.093 0.1 14 -0.4 102710 32
2010-12-13 08:51:46 51°16.196 2°54.091 0.2 10 -0.4 102710 32
2010-12-13 08:51:51 51°16.195 2°54.09 0.2 16 -0.4 102720 31
2010-12-13 08:51:56 51°16.195 2°54.088 0.1 14 -0.4 102720 31
2010-12-13 08:52:01 51°16.194 2°54.087 -999 8 -0.4 102720 29
2010-12-13 08:52:06 51°16.193 2°54.085 -999 11 -0.4 102720 29
2010-12-13 08:52:11 51°16.192 2°54.084 1 10 -0.4 102720 32
2010-12-13 08:52:16 51°16.192 2°54.082 0.1 10 -0.4 102720 32
2010-12-13 08:52:21 51°16.191 2°54.081 0.1 8 -0.4 102720 32
2010-12-13 08:52:26 51°16.19 2°54.079 0.1 6 -0.4 102720 32
2010-12-13 08:52:31 51°16.189 2°54.077 0.1 5 -0.4 102720 30
2010-12-13 08:52:36 51°16.188 2°54.076 1.2 21 -0.4 102720 30
2010-12-13 08:52:41 51°16.188 2°54.074 1 19 -0.4 102720 32
2010-12-13 08:52:46 51°16.187 2°54.073 0.3 15 -0.4 102720 32
2010-12-13 08:52:51 51°16.186 2°54.072 1.8 17 -0.4 102720 32
2010-12-13 08:52:56 51°16.185 2°54.07 1.3 14 -0.4 102720 32
2010-12-13 08:53:01 51°16.185 2°54.068 1 14 -0.4 102720 34
2010-12-13 08:53:06 51°16.184 2°54.066 1 12 -0.4 102720 34
2010-12-13 08:53:11 51°16.183 2°54.065 1.1 12 -0.5 102710 33
2010-12-13 08:53:16 51°16.183 2°54.063 1 13 -0.5 102710 33
2010-12-13 08:53:21 51°16.182 2°54.062 0.7 8 -0.5 102720 33
2010-12-13 08:53:26 51°16.181 2°54.06 0.1 15 -0.5 102720 33
2010-12-13 08:53:31 51°16.18 2°54.059 0.1 11 -0.5 102720 32
2010-12-13 08:53:36 51°16.179 2°54.057 0.9 14 -0.5 102720 32
2010-12-13 08:53:41 51°16.179 2°54.055 0.4 10 -0.5 102720 32
2010-12-13 08:53:46 51°16.178 2°54.054 0.1 23 -0.5 102720 32
2010-12-13 08:53:51 51°16.177 2°54.053 0.1 21 -0.5 102720 32
2010-12-13 08:53:56 51°16.177 2°54.051 -999 23 -0.5 102720 32
2010-12-13 08:54:01 51°16.176 2°54.05 -999 25 -0.5 102720 34
2010-12-13 08:54:06 51°16.175 2°54.047 -999 23 -0.5 102720 34
2010-12-13 08:54:11 51°16.174 2°54.047 -999 20 -0.5 102710 32
2010-12-13 08:54:16 51°16.174 2°54.045 -999 19 -0.5 102710 32
2010-12-13 08:54:21 51°16.174 2°54.044 -999 21 -0.5 102710 32
2010-12-13 08:54:26 51°16.175 2°54.044 0.1 11 -0.5 102710 32
2010-12-13 08:54:31 51°16.176 2°54.044 0.1 12 -0.5 102720 32
2010-12-13 08:54:36 51°16.177 2°54.044 0.1 10 -0.5 102720 32
2010-12-13 08:54:41 51°16.179 2°54.046 -999 4 -0.5 102720 31
2010-12-13 08:54:46 51°16.181 2°54.046 -999 358 -0.5 102720 31
2010-12-13 08:54:51 51°16.183 2°54.049 -999 360 -0.5 102720 32
2010-12-13 08:54:56 51°16.187 2°54.05 1.6 350 -0.5 102720 32
2010-12-13 08:55:01 51°16.189 2°54.054 1.2 348 -0.5 102720 32
2010-12-13 08:55:06 51°16.192 2°54.057 2.4 346 -0.5 102720 32
2010-12-13 08:55:11 51°16.195 2°54.062 2 349 -0.5 102720 32
2010-12-13 08:55:16 51°16.199 2°54.067 2.7 346 -0.5 102720 32
2010-12-13 08:55:21 51°16.202 2°54.073 3 350 -0.5 102720 31
2010-12-13 08:55:26 51°16.206 2°54.079 2.5 347 -0.5 102720 31
2010-12-13 08:55:31 51°16.209 2°54.086 1 346 -0.5 102720 31
2010-12-13 08:55:35 51°16.212 2°54.091 4.5 346 -0.5 102720 31
2010-12-13 08:55:41 51°16.216 2°54.101 3.9 343 -0.5 102720 33
2010-12-13 08:55:47 51°16.222 2°54.112 3.5 344 -0.5 102720 33
2010-12-13 08:55:51 51°16.225 2°54.119 3.1 339 -0.5 102720 33
2010-12-13 08:55:56 51°16.23 2°54.129 3.5 339 -0.5 102720 33
2010-12-13 08:56:01 51°16.235 2°54.14 3.8 337 -0.5 102710 33
2010-12-13 08:56:06 51°16.239 2°54.151 4.5 338 -0.5 102710 33
2010-12-13 08:56:11 51°16.245 2°54.163 4.3 337 -0.5 102720 33
2010-12-13 08:56:16 51°16.249 2°54.176 4.1 336 -0.5 102720 33
2010-12-13 08:56:21 51°16.254 2°54.188 4.2 338 -0.5 102720 31
2010-12-13 08:56:26 51°16.257 2°54.203 5.2 337 -0.5 102720 31
2010-12-13 08:56:31 51°16.261 2°54.217 4.1 335 -0.5 102730 32
2010-12-13 08:56:36 51°16.263 2°54.232 4.7 334 -0.5 102730 32
2010-12-13 08:56:41 51°16.266 2°54.246 4.6 336 -0.5 102720 33
2010-12-13 08:56:46 51°16.267 2°54.26 4.5 333 -0.5 102720 33
2010-12-13 08:56:51 51°16.269 2°54.272 3.3 333 -0.5 102730 33
2010-12-13 08:56:56 51°16.269 2°54.284 3.4 330 -0.5 102730 33
2010-12-13 08:57:01 51°16.27 2°54.295 2.7 331 -0.5 102730 32
2010-12-13 08:57:06 51°16.27 2°54.306 2.3 331 -0.5 102730 32
2010-12-13 08:57:11 51°16.27 2°54.316 2.1 332 -0.5 102730 33
2010-12-13 08:57:16 51°16.269 2°54.325 2.4 331 -0.5 102730 33
2010-12-13 08:57:21 51°16.268 2°54.333 2.5 330 -0.5 102720 32
2010-12-13 08:57:26 51°16.267 2°54.34 2 329 -0.5 102720 32
2010-12-13 08:57:31 51°16.266 2°54.346 1.3 328 -0.5 102730 33
2010-12-13 08:57:36 51°16.265 2°54.352 0.8 328 -0.5 102730 33
2010-12-13 08:57:41 51°16.264 2°54.357 1.2 325 -0.5 102730 33
2010-12-13 08:57:46 51°16.263 2°54.362 1.3 327 -0.5 102730 33
2010-12-13 08:57:51 51°16.262 2°54.366 1.6 330 -0.5 102730 31
2010-12-13 08:57:56 51°16.26 2°54.37 0.9 328 -0.5 102730 31
2010-12-13 08:58:01 51°16.259 2°54.374 1.1 329 -0.5 102730 33
2010-12-13 08:58:06 51°16.258 2°54.377 0.1 327 -0.5 102730 33
2010-12-13 08:58:11 51°16.257 2°54.38 0.1 325 -0.5 102730 31
2010-12-13 08:58:16 51°16.256 2°54.382 0.3 327 -0.5 102730 31
2010-12-13 08:58:21 51°16.255 2°54.383 0.5 327 -0.4 102730 32
2010-12-13 08:58:26 51°16.254 2°54.385 0.2 324 -0.4 102730 32
2010-12-13 08:58:31 51°16.253 2°54.387 0.1 318 -0.4 102730 30
2010-12-13 08:58:35 51°16.253 2°54.388 0.1 319 -0.4 102730 30
2010-12-13 08:58:41 51°16.251 2°54.389 0.1 27 -0.4 102730 32
2010-12-13 08:58:46 51°16.251 2°54.39 -999 315 -0.4 102730 32
2010-12-13 08:58:51 51°16.25 2°54.391 -999 22 -0.4 102740 32
2010-12-13 08:58:56 51°16.249 2°54.391 -999 317 -0.4 102740 32
2010-12-13 08:59:01 51°16.248 2°54.392 -999 318 -0.4 102740 32
2010-12-13 08:59:06 51°16.247 2°54.393 0.1 317 -0.4 102740 32
2010-12-13 08:59:11 51°16.246 2°54.393 0.1 20 -0.4 102730 32
2010-12-13 08:59:16 51°16.245 2°54.394 0.1 39 -0.4 102730 32
2010-12-13 08:59:21 51°16.244 2°54.394 0.7 25 -0.4 102740 32
2010-12-13 08:59:26 51°16.243 2°54.394 0.1 34 -0.4 102740 32
2010-12-13 08:59:31 51°16.242 2°54.394 0.1 22 -0.3 102740 32
2010-12-13 08:59:36 51°16.24 2°54.394 0.1 34 -0.3 102740 32
2010-12-13 08:59:41 51°16.239 2°54.394 0.1 22 -0.3 102730 30
2010-12-13 08:59:46 51°16.238 2°54.394 -999 33 -0.3 102730 30
2010-12-13 08:59:51 51°16.237 2°54.394 -999 22 -0.3 102730 32
2010-12-13 08:59:56 51°16.236 2°54.394 -999 34 -0.3 102730 32
2010-12-13 09:00:01 51°16.235 2°54.394 -999 22 -0.3 102730 31
2010-12-13 09:00:06 51°16.234 2°54.394 0.1 240 -0.3 102730 31
2010-12-13 09:00:11 51°16.233 2°54.393 0.1 21 -0.3 102740 32
2010-12-13 09:00:16 51°16.232 2°54.393 -999 240 -0.3 102740 32
2010-12-13 09:00:21 51°16.231 2°54.392 -999 22 -0.3 102740 32
2010-12-13 09:00:26 51°16.23 2°54.392 -999 237 -0.3 102740 32
2010-12-13 09:00:31 51°16.229 2°54.392 -999 22 -0.3 102730 32
2010-12-13 09:00:36 51°16.228 2°54.391 -999 34 -0.3 102730 32
2010-12-13 09:00:41 51°16.227 2°54.39 -999 22 -0.3 102730 32
2010-12-13 09:00:46 51°16.226 2°54.39 -999 34 -0.3 102730 32
2010-12-13 09:00:51 51°16.225 2°54.389 -999 22 -0.3 102730 32
2010-12-13 09:00:56 51°16.224 2°54.389 -999 238 -0.3 102730 32
2010-12-13 09:01:01 51°16.223 2°54.388 -999 22 -0.3 102730 32
2010-12-13 09:01:06 51°16.222 2°54.387 -999 240 -0.3 102730 32
2010-12-13 09:01:11 51°16.22 2°54.387 -999 22 -0.3 102740 32
2010-12-13 09:01:15 51°16.22 2°54.386 -999 34 -0.3 102740 32
2010-12-13 09:01:21 51°16.218 2°54.385 -999 22 -0.3 102740 32
2010-12-13 09:01:26 51°16.218 2°54.385 -999 34 -0.3 102740 32
2010-12-13 09:01:31 51°16.216 2°54.384 -999 22 -0.3 102740 32
2010-12-13 09:01:35 51°16.216 2°54.383 -999 237 -0.3 102740 32
2010-12-13 09:01:41 51°16.215 2°54.383 -999 22 -0.3 102730 32
2010-12-13 09:01:46 51°16.214 2°54.382 -999 34 -0.3 102730 32
2010-12-13 09:01:51 51°16.213 2°54.381 -999 22 -0.3 102740 32
2010-12-13 09:01:56 51°16.212 2°54.38 -999 34 -0.3 102740 32
2010-12-13 09:02:01 51°16.211 2°54.38 -999 22 -0.3 102740 32
2010-12-13 09:02:06 51°16.21 2°54.379 -999 34 -0.3 102740 32
2010-12-13 09:02:11 51°16.209 2°54.378 -999 22 -0.3 102730 32
2010-12-13 09:02:16 51°16.208 2°54.377 -999 34 -0.3 102730 32
2010-12-13 09:02:21 51°16.207 2°54.376 -999 22 -0.3 102740 32
2010-12-13 09:02:26 51°16.206 2°54.375 -999 33 -0.3 102740 32
2010-12-13 09:02:31 51°16.206 2°54.374 -999 22 -0.3 102740 32
2010-12-13 09:02:36 51°16.205 2°54.373 -999 34 -0.3 102740 32
2010-12-13 09:02:41 51°16.204 2°54.372 -999 22 -0.3 102730 31
2010-12-13 09:02:46 51°16.203 2°54.371 -999 34 -0.3 102730 31
2010-12-13 09:02:51 51°16.202 2°54.371 -999 22 -0.3 102730 32
2010-12-13 09:02:56 51°16.201 2°54.37 -999 34 -0.3 102730 32
2010-12-13 09:03:01 51°16.2 2°54.369 -999 22 -0.3 102740 32
2010-12-13 09:03:06 51°16.2 2°54.369 -999 34 -0.3 102740 32
2010-12-13 09:03:11 51°16.199 2°54.368 -999 22 -0.3 102740 32
2010-12-13 09:03:16 51°16.198 2°54.367 -999 34 -0.3 102740 32
2010-12-13 09:03:21 51°16.198 2°54.367 -999 22 -0.3 102740 32
2010-12-13 09:03:26 51°16.197 2°54.366 -999 240 -0.3 102740 32
2010-12-13 09:03:31 51°16.196 2°54.365 -999 24 -0.3 102730 32
2010-12-13 09:03:35 51°16.196 2°54.365 -999 237 -0.3 102730 32
2010-12-13 09:03:41 51°16.195 2°54.364 -999 22 -0.3 102740 32
2010-12-13 09:03:46 51°16.194 2°54.363 -999 241 -0.3 102740 32
2010-12-13 09:03:51 51°16.193 2°54.362 -999 22 -0.3 102740 32
2010-12-13 09:03:56 51°16.193 2°54.361 -999 240 -0.3 102740 32
2010-12-13 09:04:01 51°16.192 2°54.36 -999 22 -0.3 102740 32
2010-12-13 09:04:06 51°16.191 2°54.36 -999 34 -0.3 102740 32
2010-12-13 09:04:11 51°16.191 2°54.358 -999 22 -0.3 102730 32
2010-12-13 09:04:16 51°16.19 2°54.358 -999 34 -0.3 102730 32
2010-12-13 09:04:21 51°16.189 2°54.356 -999 22 -0.3 102730 32
2010-12-13 09:04:26 51°16.188 2°54.355 -999 237 -0.3 102730 32
2010-12-13 09:04:31 51°16.188 2°54.354 -999 22 -0.3 102740 32
2010-12-13 09:04:36 51°16.187 2°54.353 -999 238 -0.3 102740 32
2010-12-13 09:04:41 51°16.186 2°54.352 -999 22 -0.3 102740 32
2010-12-13 09:04:46 51°16.186 2°54.351 -999 34 -0.3 102740 32
2010-12-13 09:04:51 51°16.185 2°54.35 -999 22 -0.3 102730 32
2010-12-13 09:04:56 51°16.184 2°54.349 -999 34 -0.3 102730 32
2010-12-13 09:05:01 51°16.184 2°54.348 -999 22 -0.3 102730 32
2010-12-13 09:05:06 51°16.183 2°54.347 -999 238 -0.3 102730 32
2010-12-13 09:05:11 51°16.182 2°54.346 -999 22 -0.3 102740 32
2010-12-13 09:05:16 51°16.182 2°54.345 -999 239 -0.3 102740 32
2010-12-13 09:05:21 51°16.181 2°54.344 -999 22 -0.3 102740 31
2010-12-13 09:05:26 51°16.181 2°54.343 -999 237 -0.3 102740 31
2010-12-13 09:05:31 51°16.18 2°54.342 -999 22 -0.4 102740 32
2010-12-13 09:05:36 51°16.179 2°54.341 -999 34 -0.4 102740 32
2010-12-13 09:05:41 51°16.179 2°54.339 -999 22 -0.3 102740 32
2010-12-13 09:05:46 51°16.178 2°54.339 -999 238 -0.3 102740 32
2010-12-13 09:05:51 51°16.177 2°54.337 -999 22 -0.3 102740 32
2010-12-13 09:05:56 51°16.177 2°54.337 -999 34 -0.3 102740 32
2010-12-13 09:06:01 51°16.176 2°54.335 -999 22 -0.3 102730 32
2010-12-13 09:06:06 51°16.175 2°54.335 -999 34 -0.3 102730 32
2010-12-13 09:06:11 51°16.175 2°54.333 -999 22 -0.3 102740 32
2010-12-13 09:06:16 51°16.174 2°54.332 -999 34 -0.3 102740 32
2010-12-13 09:06:21 51°16.174 2°54.331 -999 22 -0.3 102730 32
2010-12-13 09:06:26 51°16.173 2°54.33 -999 34 -0.3 102730 32
2010-12-13 09:06:31 51°16.172 2°54.329 -999 22 -0.3 102730 32
2010-12-13 09:06:36 51°16.172 2°54.328 -999 242 -0.3 102730 32
2010-12-13 09:06:41 51°16.171 2°54.327 -999 22 -0.3 102730 32
2010-12-13 09:06:46 51°16.171 2°54.326 -999 248 -0.3 102730 32
2010-12-13 09:06:51 51°16.17 2°54.325 -999 248 -0.3 102740 32
2010-12-13 09:06:56 51°16.169 2°54.323 -999 251 -0.3 102740 32
2010-12-13 09:07:01 51°16.169 2°54.322 -999 22 -0.3 102740 32
2010-12-13 09:07:06 51°16.168 2°54.321 -999 251 -0.3 102740 32
2010-12-13 09:07:11 51°16.168 2°54.32 -999 250 -0.3 102740 32
2010-12-13 09:07:16 51°16.167 2°54.319 -999 249 -0.3 102740 32
2010-12-13 09:07:21 51°16.166 2°54.318 -999 250 -0.3 102740 32
2010-12-13 09:07:26 51°16.166 2°54.316 -999 251 -0.3 102740 32
2010-12-13 09:07:31 51°16.165 2°54.315 -999 22 -0.3 102740 32
2010-12-13 09:07:35 51°16.165 2°54.314 -999 248 -0.3 102740 32
2010-12-13 09:07:41 51°16.164 2°54.313 -999 249 -0.3 102740 32
2010-12-13 09:07:46 51°16.163 2°54.312 -999 251 -0.3 102740 32
2010-12-13 09:07:51 51°16.163 2°54.31 -999 255 -0.3 102740 32
2010-12-13 09:07:56 51°16.162 2°54.309 -999 250 -0.3 102740 32
2010-12-13 09:08:01 51°16.161 2°54.308 -999 251 -0.3 102740 31
2010-12-13 09:08:06 51°16.161 2°54.307 -999 249 -0.3 102740 31
2010-12-13 09:08:11 51°16.16 2°54.305 -999 254 -0.3 102740 32
2010-12-13 09:08:16 51°16.16 2°54.304 -999 243 -0.3 102740 32
2010-12-13 09:08:21 51°16.159 2°54.303 -999 22 -0.3 102740 32
2010-12-13 09:08:26 51°16.158 2°54.302 -999 248 -0.3 102740 32
2010-12-13 09:08:31 51°16.158 2°54.3 -999 251 -0.3 102740 32
2010-12-13 09:08:36 51°16.157 2°54.299 -999 249 -0.3 102740 32
2010-12-13 09:08:41 51°16.156 2°54.298 -999 22 -0.3 102740 32
2010-12-13 09:08:46 51°16.156 2°54.297 -999 241 -0.3 102740 32
2010-12-13 09:08:51 51°16.155 2°54.295 -999 22 -0.3 102730 32
2010-12-13 09:08:56 51°16.154 2°54.294 -999 245 -0.3 102730 32
2010-12-13 09:09:01 51°16.154 2°54.293 -999 22 -0.3 102740 32
2010-12-13 09:09:06 51°16.153 2°54.292 -999 246 -0.3 102740 32
2010-12-13 09:09:11 51°16.152 2°54.29 -999 22 -0.3 102740 32
2010-12-13 09:09:16 51°16.152 2°54.289 -999 245 -0.3 102740 32
2010-12-13 09:09:21 51°16.151 2°54.288 -999 22 -0.3 102740 32
2010-12-13 09:09:26 51°16.15 2°54.287 -999 239 -0.3 102740 32
2010-12-13 09:09:31 51°16.149 2°54.285 -999 22 -0.3 102740 32
2010-12-13 09:09:36 51°16.147 2°54.285 0.3 34 -0.3 102740 32
2010-12-13 09:09:41 51°16.145 2°54.285 0.2 27 -0.3 102740 32
2010-12-13 09:09:46 51°16.143 2°54.286 0.9 31 -0.3 102740 32
2010-12-13 09:09:51 51°16.14 2°54.287 0.6 21 -0.3 102740 32
2010-12-13 09:09:56 51°16.137 2°54.289 1.5 319 -0.3 102740 32
2010-12-13 09:10:01 51°16.135 2°54.291 1.1 320 -0.3 102740 34
2010-12-13 09:10:06 51°16.132 2°54.295 1.3 324 -0.3 102740 34
2010-12-13 09:10:11 51°16.13 2°54.299 1.5 323 -0.3 102740 33
2010-12-13 09:10:16 51°16.128 2°54.304 1.6 329 -0.3 102740 33
2010-12-13 09:10:21 51°16.125 2°54.31 2.1 330 -0.3 102730 31
2010-12-13 09:10:26 51°16.125 2°54.316 2.1 337 -0.3 102730 31
2010-12-13 09:10:31 51°16.124 2°54.323 2.3 329 -0.3 102730 31
2010-12-13 09:10:36 51°16.124 2°54.33 2.5 339 -0.3 102730 31
2010-12-13 09:10:41 51°16.124 2°54.337 2.1 334 -0.3 102740 29
2010-12-13 09:10:46 51°16.125 2°54.345 2.6 340 -0.3 102740 29
2010-12-13 09:10:51 51°16.127 2°54.352 3.1 341 -0.3 102740 30
2010-12-13 09:10:56 51°16.13 2°54.359 2.1 342 -0.3 102740 30
2010-12-13 09:11:01 51°16.133 2°54.366 2.6 343 -0.3 102740 30
2010-12-13 09:11:06 51°16.137 2°54.371 2.9 345 -0.3 102740 30
2010-12-13 09:11:11 51°16.142 2°54.376 2 343 -0.3 102740 33
2010-12-13 09:11:16 51°16.147 2°54.381 1.3 352 -0.3 102740 33
2010-12-13 09:11:21 51°16.152 2°54.383 2.2 350 -0.3 102740 30
2010-12-13 09:11:26 51°16.158 2°54.385 0.9 356 -0.3 102740 30
2010-12-13 09:11:31 51°16.164 2°54.385 0.6 355 -0.3 102740 30
2010-12-13 09:11:36 51°16.17 2°54.384 0.3 359 -0.3 102740 30
2010-12-13 09:11:41 51°16.176 2°54.381 0.3 3 -0.3 102740 31
2010-12-13 09:11:46 51°16.181 2°54.377 0.1 8 -0.3 102740 31
2010-12-13 09:11:51 51°16.187 2°54.372 0.1 7 -0.3 102740 33
2010-12-13 09:11:56 51°16.192 2°54.366 -999 11 -0.3 102740 33
2010-12-13 09:12:01 51°16.198 2°54.359 -999 2 -0.3 102740 32
2010-12-13 09:12:06 51°16.203 2°54.35 0.1 2 -0.3 102740 32
2010-12-13 09:12:11 51°16.209 2°54.339 0.1 -999 -0.3 102730 32
2010-12-13 09:12:16 51°16.215 2°54.327 -999 -999 -0.3 102730 32
2010-12-13 09:12:21 51°16.221 2°54.313 -999 357 -0.3 102740 32
2010-12-13 09:12:26 51°16.228 2°54.299 -999 348 -0.3 102740 32
2010-12-13 09:12:31 51°16.236 2°54.285 0.1 349 -0.3 102740 32
2010-12-13 09:12:35 51°16.243 2°54.272 1.4 347 -0.3 102740 32
2010-12-13 09:12:41 51°16.255 2°54.253 2.2 345 -0.3 102730 32
2010-12-13 09:12:46 51°16.265 2°54.236 1.9 345 -0.3 102730 32
2010-12-13 09:12:51 51°16.276 2°54.22 1.4 348 -0.3 102740 33
2010-12-13 09:12:56 51°16.288 2°54.203 2.9 342 -0.3 102740 33
2010-12-13 09:13:01 51°16.3 2°54.185 2.2 343 -0.3 102740 32
2010-12-13 09:13:06 51°16.312 2°54.167 4 340 -0.3 102740 32
2010-12-13 09:13:11 51°16.325 2°54.148 4 343 -0.4 102740 33
2010-12-13 09:13:16 51°16.338 2°54.129 3.7 341 -0.4 102740 33
2010-12-13 09:13:21 51°16.351 2°54.11 3 345 -0.4 102730 30
2010-12-13 09:13:26 51°16.364 2°54.09 3.7 344 -0.4 102730 30
2010-12-13 09:13:31 51°16.377 2°54.069 3.9 341 -0.4 102730 33
2010-12-13 09:13:35 51°16.387 2°54.053 3.8 339 -0.4 102730 33
2010-12-13 09:13:41 51°16.403 2°54.028 4 340 -0.4 102730 33
2010-12-13 09:13:47 51°16.418 2°54.003 4 341 -0.4 102730 33
2010-12-13 09:13:51 51°16.429 2°53.986 3 339 -0.4 102730 30
2010-12-13 09:13:56 51°16.442 2°53.965 3.9 340 -0.4 102730 30
2010-12-13 09:14:01 51°16.455 2°53.944 3.2 339 -0.4 102730 33
2010-12-13 09:14:06 51°16.468 2°53.923 4.1 338 -0.4 102730 33
2010-12-13 09:14:11 51°16.481 2°53.902 3.7 339 -0.4 102730 33
2010-12-13 09:14:16 51°16.494 2°53.88 3.4 342 -0.4 102730 33
2010-12-13 09:14:21 51°16.507 2°53.859 3.9 341 -0.4 102730 31
2010-12-13 09:14:26 51°16.52 2°53.837 2.9 339 -0.4 102730 31
2010-12-13 09:14:31 51°16.532 2°53.815 2.5 338 -0.4 102730 32
2010-12-13 09:14:36 51°16.544 2°53.791 2.9 340 -0.4 102730 32
2010-12-13 09:14:41 51°16.556 2°53.769 4 341 -0.4 102730 33
2010-12-13 09:14:46 51°16.568 2°53.746 3.1 339 -0.4 102730 33
2010-12-13 09:14:51 51°16.58 2°53.723 3.7 339 -0.4 102730 32
2010-12-13 09:14:56 51°16.591 2°53.7 2.8 338 -0.4 102730 32
2010-12-13 09:15:01 51°16.603 2°53.676 4 340 -0.4 102730 33
2010-12-13 09:15:06 51°16.615 2°53.653 3 340 -0.4 102730 33
2010-12-13 09:15:11 51°16.626 2°53.63 3.5 338 -0.4 102720 32
2010-12-13 09:15:16 51°16.638 2°53.607 4.4 338 -0.4 102720 32
2010-12-13 09:15:21 51°16.65 2°53.584 4.4 342 -0.4 102720 31
2010-12-13 09:15:26 51°16.662 2°53.561 4.2 340 -0.4 102720 31
2010-12-13 09:15:31 51°16.674 2°53.537 4.1 341 -0.4 102720 33
2010-12-13 09:15:36 51°16.686 2°53.515 4.2 339 -0.4 102720 33
2010-12-13 09:15:41 51°16.698 2°53.492 3.5 341 -0.3 102720 31
2010-12-13 09:15:46 51°16.709 2°53.468 3.2 340 -0.3 102720 31
2010-12-13 09:15:51 51°16.721 2°53.445 3.4 339 -0.3 102720 31
2010-12-13 09:15:56 51°16.733 2°53.422 4.5 336 -0.3 102720 31
2010-12-13 09:16:01 51°16.745 2°53.398 4.4 335 -0.3 102720 31
2010-12-13 09:16:06 51°16.757 2°53.376 3.8 339 -0.3 102720 31
2010-12-13 09:16:11 51°16.768 2°53.353 3.6 338 -0.3 102730 30
2010-12-13 09:16:16 51°16.78 2°53.33 3.9 339 -0.3 102730 30
2010-12-13 09:16:21 51°16.791 2°53.306 2.9 337 -0.3 102730 31
2010-12-13 09:16:26 51°16.803 2°53.283 4 341 -0.3 102730 31
2010-12-13 09:16:31 51°16.815 2°53.26 3.7 339 -0.3 102720 33
2010-12-13 09:16:36 51°16.827 2°53.237 3.9 340 -0.3 102720 33
2010-12-13 09:16:41 51°16.839 2°53.215 3.3 340 -0.3 102730 33
2010-12-13 09:16:46 51°16.85 2°53.191 2.9 341 -0.3 102730 33
2010-12-13 09:16:51 51°16.862 2°53.169 2.4 338 -0.3 102730 34
2010-12-13 09:16:56 51°16.873 2°53.146 2.3 334 -0.3 102730 34
2010-12-13 09:17:01 51°16.885 2°53.124 3.4 339 -0.3 102730 31
2010-12-13 09:17:06 51°16.896 2°53.102 2.7 339 -0.3 102730 31
2010-12-13 09:17:11 51°16.907 2°53.08 1.6 338 -0.3 102730 34
2010-12-13 09:17:16 51°16.919 2°53.058 1.9 337 -0.3 102730 34
2010-12-13 09:17:21 51°16.93 2°53.035 3.4 336 -0.3 102730 33
2010-12-13 09:17:26 51°16.942 2°53.014 3.6 338 -0.3 102730 33
2010-12-13 09:17:31 51°16.953 2°52.991 3.4 334 -0.3 102730 31
2010-12-13 09:17:36 51°16.965 2°52.969 3 337 -0.3 102730 31
2010-12-13 09:17:41 51°16.977 2°52.947 3 338 -0.3 102730 33